www.pogodaiklimat.ru

Погода и климат >> Архив погоды >> Россия >> Чукотка >> Чаун


ПОГОДА в Чауне

  • Прогноз погоды в Чауне
  • Монитор погоды в Чауне

АРХИВ ПОГОДЫ в Чауне

Время (UTC), дата Ветер
(напр.,м/с)
 
Видим.   Явления Облачность Т
(С)
Тd
(С)
f
(%)
Тe
(С)
Тes
(С)
Комфортность P
(гПа)
Po
(гПа)
Тmin
(С)
Tmax
(С)
R
(мм)
R24
(мм)
S
(см)
09 11.02 ЮВ 3
{5}
20 км 1/0
[Ci fib]
-41.0 -45.8 60 -53 -53 опасность
обморожения
1020.7 1020.0 -32.9
12 11.02 ЮВ 2
{4}
20 км 1/0
[Ci fib]
-41.7 -46.3 61 -51 -51 опасность
обморожения
1019.8 1019.1
15 11.02 СВ 2
{4}
20 км 1/0
[Ci fib]
-43.7 -48.2 61 -53 -53 опасность
обморожения
1017.1 1016.4
18 11.02 СЗ 2
{3}
20 км 9/0
[Ac trans Ci fib]
-41.8 -46.3 61 -51 -51 опасность
обморожения
1015.9 1015.2
21 11.02 СЗ 1
{3}
20 км 9/0
[Ac lent Ci fib]
-39.9 -44.3 63 -45 -45 опасность
обморожения
1013.9 1013.2 -43.7 32
00 12.02 СЗ 4
{6}
20 км 4/0
[Ci fib]
-38.5 -42.7 64 -52 -51 опасность
обморожения
1012.8 1012.1
03 12.02 З 5
{7}
50 км 4/0
[Ci fib]
-36.9 -41.0 66 -51 -51 опасность
обморожения
1012.2 1011.5
06 12.02 З 2
{6}
50 км 4/0
[Ci fib]
-37.6 -41.8 65 -46 -46 опасность
обморожения
1013.4 1012.7
09 12.02 СЗ 1
{4}
50 км 4/0
[Ci fib]
-39.5 -43.6 65 -45 -45 опасность
обморожения
1014.8 1014.1 -36.7
12 12.02 штиль 0
{2}
50 км 3/0
[Ci fib]
-44.7 -49.9 56 -45 -45 опасность
обморожения
1016.3 1015.6
15 12.02 ЮВ 2
{3}
50 км 3/0
[Ci fib]
-45.5 -50.4 57 -56 -56 опасность
обморожения
1017.8 1017.1
18 12.02 ЮВ 2
{3}
50 км 3/0
[Ci fib]
-45.6 -51.3 52 -56 -56 опасность
обморожения
1018.8 1018.1
21 12.02 ЮВ 3
{4}
50 км 3/0
[Ci fib]
-46.0 -51.3 55 -59 -59 опасность
обморожения
1019.6 1018.9 -46.0 32
00 13.02 В 3
{4}
50 км 3/0
[Ci fib]
-43.7 -48.2 61 -56 -56 опасность
обморожения
1020.5 1019.8
03 13.02 ЮВ 3
{4}
50 км 3/0
[Ci fib]
-42.5 -46.9 62 -55 -55 опасность
обморожения
1021.6 1020.9
06 13.02 ЮВ 3
{4}
50 км 3/0
[Ci fib]
-44.4 -49.5 57 -57 -57 опасность
обморожения
1023.2 1022.5
09 13.02 В 3
{4}
50 км 3/0
[Ci fib]
-44.5 -49.7 56 -57 -57 опасность
обморожения
1025.2 1024.5 -42.3
12 13.02 ЮВ 3
{4}
50 км 3/0
[Ci fib]
-44.7 -50.5 52 -57 -57 опасность
обморожения
1027.1 1026.4
15 13.02 ЮВ 4
{4}
50 км 3/0
[Ci fib]
-43.6 -48.2 60 -58 -58 опасность
обморожения
1027.9 1027.2
18 13.02 ЮВ 3
{4}
50 км 4/0
[Ci fib]
-42.9 -47.5 60 -55 -55 опасность
обморожения
1028.3 1027.6
21 13.02 ЮВ 3
{4}
50 км 4/0
[Ci fib]
-43.0 -47.5 61 -55 -55 опасность
обморожения
1027.4 1026.7 -45.1 32
00 14.02 Ю 2
{4}
50 км 3/0
[Ci fib]
-42.1 -46.9 59 -52 -51 опасность
обморожения
1026.2 1025.5
03 14.02 В 2
{4}
50 км 3/0
[Ci fib]
-39.9 -44.8 59 -49 -49 опасность
обморожения
1023.3 1022.6
06 14.02 Ю 2
{4}
50 км 3/0
[Ci fib]
-38.7 -42.7 66 -48 -48 опасность
обморожения
1021.3 1020.6
09 14.02 З 2
{4}
50 км 1/0
[Ci fib]
-39.2 -43.1 66 -48 -48 опасность
обморожения
1018.8 1018.1 -37.2
12 14.02 З 1
{3}
50 км 3/0
[Ci fib]
-40.0 -44.1 65 -45 -45 опасность
обморожения
1016.8 1016.1
15 14.02 З 1
{2}
50 км 3/0
[Ci fib]
-40.1 -44.1 65 -45 -45 опасность
обморожения
1013.9 1013.2
18 14.02 З 2
{3}
50 км 1/0
[Ci fib]
-37.3 -41.5 65 -46 -46 опасность
обморожения
1011.9 1011.2
21 14.02 СЗ 2
{4}
50 км 9/0
[Cs]
-34.3 -37.9 70 -42 -42 опасность
обморожения
1009.6 1008.9 -40.8 32
00 15.02 З 3
{4}
50 км 10/0
[Cs]
-32.1 -35.5 72 -42 -42 опасность
обморожения
1007.2 1006.5
03 15.02 З 3
{5}
50 км 10/0
[Cs]
-31.2 -34.2 75 -41 -41 опасность
обморожения
1005.0 1004.3
06 15.02 СЗ 3
{4}
50 км 10/0
[Cs]
-30.5 -33.5 75 -40 -40 опасность
обморожения
1004.1 1003.4
09 15.02 ЮЗ 1
{6}
50 км слаб. снег 10/0
[As op]
-29.9 -33.0 74 -34 -34 опасность
обморожения
1003.7 1003.0 -29.9 0.2
12 15.02 штиль 0
{2}
20 км {снег} 10/0
[As trans]
-29.1 -32.1 75 -29 -29 1002.6 1001.9
15 15.02 штиль 0
{2}
20 км 9/0
[Ac trans]
-28.2 -31.1 76 -28 -28 1001.5 1000.8
18 15.02 СЗ 2
{3}
20 км 9/0
[Ac trans]
-26.7 -29.2 79 -34 -34 опасность
обморожения
1000.3 999.7
21 15.02 СЗ 2
{5}
20 км 10/0
[Ac und]
-26.1 -28.5 80 -33 -33 опасность
обморожения
1001.0 1000.3 -29.9 0.2 32
00 16.02 СЗ 3
{4}
20 км 10/0
[Ac und]
-25.1 -27.5 80 -34 -34 опасность
обморожения
1000.1 999.4
03 16.02 СЗ 5
{6}
20 км 10/0
[Ac und]
-25.6 -28.1 79 -37 -37 опасность
обморожения
998.4 997.7
06 16.02 СЗ 6
{8}
20 км позёмок 10/0
[Ac und]
-25.7 -28.1 80 -38 -38 опасность
обморожения
996.0 995.3
09 16.02 СЗ 9-11
{11}
20 км позёмок 10/0
[Ac und]
-25.6 -28.1 79 -40 -40 опасность
обморожения
993.4 992.7 -25.1
12 16.02 СЗ 9-10
{13}
20 км позёмок 10/0
[Ac und]
-25.3 -27.7 80 -40 -40 опасность
обморожения
991.1 990.4
15 16.02 СЗ 8
{11}
20 км позёмок 9/0
[Ac trans]
-24.7 -27.1 80 -39 -39 опасность
обморожения
990.2 989.5
18 16.02 С 3
{9}
20 км {метель} 9/0
[Ac trans]
-24.1 -26.4 81 -33 -33 опасность
обморожения
989.9 989.3
21 16.02 С 1
{6}
4000 м слаб. снег 10/3 200 м
[Frnb As op]
-24.0 -26.5 80 -27 -27 990.0 989.4 -25.5 0.0 32
00 17.02 Ю 3
{4}
2000 м снег 10/6 180 м
[Frnb As op]
-22.9 -24.8 84 -31 -31 опасность
обморожения
990.6 990.0
03 17.02 Ю 3
{4}
4000 м слаб. снег 10/3 200 м
[Frnb As op]
-21.4 -23.3 85 -29 -29 991.1 990.5
06 17.02 Ю 2
{4}
4000 м слаб. снег 10/3 200 м
[Frnb As op]
-21.4 -23.3 85 -27 -27 992.8 992.2
09 17.02 Ю 2
{3}
20 км в посл. час снег 9/0
[Ac trans Ci fib]
-23.6 -25.5 84 -30 -30 995.1 994.5 -20.9 2
12 17.02 ЮВ 2
{3}
20 км {снег} 9/0
[Ac trans Ci fib]
-22.3 -24.1 85 -29 -29 997.7 997.1
15 17.02 штиль 0
{3}
20 км 8/0
[Ac trans Ci fib]
-23.6 -25.5 84 -24 -24 999.6 999.0
18 17.02 С 1
{2}
20 км 9/0
[Ac trans Ci fib]
-23.0 -26.1 76 -26 -26 1000.9 1000.3
21 17.02 СЗ 2
{3}
20 км 9/0
[Ac trans]
-24.0 -26.3 81 -30 -30 1002.8 1002.2 -24.7 33
00 18.02 СЗ 3
{4}
20 км 8/0
[Ac trans]
-24.0 -26.5 80 -32 -32 опасность
обморожения
1004.0 1003.4
03 18.02 СЗ 3
{4}
20 км 8/0
[Ac trans]
-27.2 -29.8 78 -36 -36 опасность
обморожения
1005.1 1004.5
06 18.02 З 3
{5}
20 км 6/0
[Ac lent]
-29.5 -32.5 75 -39 -39 опасность
обморожения
1007.3 1006.6

 

Местоположение метеостанции Чаун (Чукотка, Россия): широта 68.88 долгота 170.70 высота над уровнем моря 5 м.

В архиве по умолчанию представлена погода в Чауне за последнюю неделю. Архивные данные за месяц целиком и за предыдущие месяцы, начиная с января 2011 года, Вы можете получить, выбрав интересующий диапазон дат из раскрывающегося списка и нажав кнопку "Ввод!".


*Определитесь, кто Вы:
робот инопланетянин человек

Внимание! Время в таблицах - всемирное. Для получения местного времени необходимо прибавить поправку, которая равна 12 ч.

Смотрите также архив погоды в соседних городах и на ближайших метеорологических станциях:

Погода на 21 км (Чукотка, Россия) (84 км)
Погода в Комсомольской (Чукотка, Россия) (89 км)
Погода в Певеке (Чукотка, Россия) (93 км)
Погода в Майской (Чукотка, Россия) (117 км)
Погода в Валькаркае (Чукотка, Россия) (134 км)
Погода в Паляваам-Глубокой (Чукотка, Россия) (137 км)
Погода на Айон Острове (Чукотка, Россия) (160 км)
Погода в Раучуе (Чукотка, Россия) (180 км)
Погода в Билибино (Чукотка, Россия) (198 км)
Погода в Илирнее (Чукотка, Россия) (215 км)

Пояснения к столбцам:

Ветер - указаны скорость ветра в м/с - средняя за 10 мин, порывы в срок и между сроками (в фигурных скобках) и направление, откуда дует ветер: С - северный, СВ - северо-восточный, В - восточный, ЮВ - юго-восточный, Ю - южный, ЮЗ - юго-западный, З - западный, СЗ - северо-западный.
Видимость - горизонтальная дальность видимости в метрах или километрах. При видимости от 1 до 10 км при отсутствии осадков обычно наблюдается дымка, при ухудшении видимости до 1 км и менее - туман. В сухую погоду видимость может ухудшаться дымом, пылью или мглою.
Явления - указаны атмосферные явления, наблюдавшиеся в срок или в последний час перед сроком; фигурными скобками обозначены явления, наблюдавшиеся между сроками (за 1-3 часа до срока); квадратными скобками обозначены град или гололедные отложения с указанием их диаметра в мм.
Облачность - указаны через наклонную черту общая и нижняя облачность в баллах и высота нижней границы облаков в метрах; квадратными скобками обозначены формы облаков: Ci - перистые, Cs - перисто-слоистые, Cc - перисто-кучевые, Ac - высококучевые, As - высокослоистые, Sc - слоисто-кучевые, Ns - слоисто-дождевые, Cu - кучевые, Cb - кучево-дождевые. Подробнее классификацию облаков см. в Атласе облаков (PDF).
T - Температура воздуха - температура, измеренная на высоте 2 м над землей.
Td - Температура точки росы - температура, при понижении до которой содержащийся в воздухе водяной пар достигнет насыщения.
f - Относительная влажность воздуха - влажноcть воздуха, измеренная на высоте 2 м над землей.
Te - Эффективная температура - температура, которую ощущает одетый по сезону человек в тени. Характеристика душности погоды. При расчете учитывается влияние влажности воздуха и скорости ветра на теплоощущения человека.
Tes - Эффективная температура на солнце - температура, которую ощущает человек, с поправкой на солнечный нагрев. Характеристика знойности погоды. Зависит от высоты солнца над горизонтом, облачности и скорости ветра. Ночью, в пасмурную погоду, а также при ветре 12 м/с и более поправка равна нулю.
P - Атмосферное давление - приведенное к уровню моря атмосферное давление.
Po - Атмосферное давление - измеренное на уровне метеостанции атмосферное давление.
Tmin - Минимальная температура - минимум температуры воздуха на высоте 2 м над землей.
Tmax - Максимальная температура - максимум температуры воздуха на высоте 2 м над землей.
R - Количество осадков - Количество выпавших осадков за период времени, мм. При наведении курсора мыши на число - период времени, за который выпало указанное количество осадков.
R24 - Количество осадков - Количество выпавших осадков за 24 часа, мм.
S - Снежный покров - Высота снежного покрова, см. При наведении курсора мыши на число - состояние снежного покрова и степень покрытия местности в баллах.